Location: Unspecified
(17.6330°N, 0.0000°E)
Time: 21:18:21
(UTC+00:00)

Vanguard 1 Rocket - All Passes

Search period start: 17 June 2019 00:00
Search period end: 27 June 2019 00:00
Orbit: 652 x 4224 km, 34.3° (Epoch: 17 June)

Date Brightness Start Highest point End Pass type
(mag) Time Alt. Az. Time Alt. Az. Time Alt. Az.
17 Jun - 00:53:29 10° NW 00:57:50 65° NNE 01:02:54 10° ESE night (unlit)
17 Jun - 03:19:45 10° WSW 03:23:18 17° SSW 03:27:58 10° SSE visible
17 Jun - 13:30:51 10° SSW 13:52:09 34° SE 14:06:58 10° E daylight
17 Jun - 16:01:22 10° SW 16:23:46 79° SSE 16:35:15 10° ENE daylight
17 Jun - 18:37:59 10° W 18:52:02 43° NNW 18:59:32 10° NE visible
17 Jun - 21:14:46 10° NW 21:19:46 18° N 21:23:30 10° NE visible
17 Jun - 23:42:38 10° NW 23:46:52 30° NNE 23:50:48 10° E visible
18 Jun - 02:07:46 10° W 02:11:49 32° SSW 02:17:11 10° SSE night (unlit)
18 Jun - 12:18:39 10° S 12:36:35 23° SE 12:51:19 10° ESE daylight
18 Jun - 14:46:00 10° SW 15:09:53 58° SE 15:23:39 10° ENE daylight
18 Jun - 17:20:33 10° WSW 17:39:36 64° NNW 17:49:07 10° NE daylight
18 Jun - 19:58:56 10° WNW 20:07:31 25° NNW 20:12:57 10° NE visible
18 Jun - 22:31:07 10° NW 22:35:21 20° N 22:38:46 10° ENE visible
19 Jun - 00:56:30 10° WNW 01:00:54 75° SSW 01:05:54 10° SE night (unlit)
19 Jun - 11:09:37 10° S 11:20:12 14° SSE 11:30:17 10° ESE daylight
19 Jun - 13:31:49 10° SSW 13:55:10 43° SE 14:10:58 10° E daylight
19 Jun - 16:03:37 10° WSW 16:26:32 88° NNW 16:38:18 10° ENE daylight
19 Jun - 18:41:37 10° W 18:55:09 37° NNW 19:02:35 10° NE visible
19 Jun - 21:17:58 10° NW 21:23:20 19° N 21:27:14 10° NE visible
19 Jun - 23:45:22 10° NW 23:50:04 46° NNE 23:54:21 10° ESE visible
20 Jun - 02:11:44 10° WSW 02:15:00 19° SSW 02:18:56 10° SSE night (unlit)
20 Jun - 12:19:03 10° SSW 12:39:48 30° SE 12:56:26 10° E daylight
20 Jun - 14:47:44 10° SW 15:12:39 71° SE 15:26:54 10° ENE daylight
20 Jun - 17:23:41 10° WSW 17:42:28 54° NNW 17:52:07 10° NE daylight
20 Jun - 20:02:36 10° WNW 20:10:59 24° NNW 20:16:22 10° NE visible
20 Jun - 22:33:46 10° NW 22:38:48 27° NNE 22:42:40 10° ENE visible
21 Jun - 00:59:45 10° WNW 01:03:56 42° SW 01:08:34 10° SE night (unlit)
21 Jun - 11:08:21 10° S 11:23:53 19° SE 11:38:24 10° ESE daylight
21 Jun - 13:33:08 10° SSW 13:57:58 53° SE 14:14:35 10° ENE daylight
21 Jun - 16:06:11 10° WSW 16:29:16 75° NNW 16:41:18 10° NE daylight
21 Jun - 18:45:21 10° W 18:58:24 33° NNW 19:05:45 10° NE visible
21 Jun - 21:20:55 10° NW 21:26:55 22° N 21:31:06 10° ENE visible
21 Jun - 23:48:13 10° NW 23:53:13 78° NNE 23:57:37 10° ESE visible
22 Jun - 12:19:57 10° SSW 12:42:43 38° SE 13:00:46 10° E daylight
22 Jun - 14:49:45 10° SW 15:15:19 83° SE 15:29:59 10° ENE daylight
22 Jun - 17:27:06 10° W 17:45:27 47° NNW 17:55:09 10° NE daylight
22 Jun - 20:06:03 10° WNW 20:14:33 25° N 20:19:56 10° NE visible
22 Jun - 22:36:26 10° NW 22:42:09 38° NNE 22:46:21 10° E visible
23 Jun - 01:03:23 10° W 01:06:58 23° SW 01:10:46 10° SSE night (unlit)
23 Jun - 11:08:26 10° S 11:27:06 25° SE 11:44:24 10° E daylight
23 Jun - 13:34:44 10° SW 14:00:37 63° SE 14:17:54 10° ENE daylight
23 Jun - 16:09:02 10° WSW 16:32:02 65° NNW 16:44:17 10° NE daylight
23 Jun - 18:49:05 10° WNW 19:01:47 32° NNW 19:09:04 10° NE visible
23 Jun - 21:23:42 10° NW 21:30:27 28° N 21:34:57 10° ENE visible
23 Jun - 23:51:15 10° WNW 23:56:15 61° SW 00:00:35 10° SE visible
24 Jun - 10:00:10 10° SSE 10:11:09 14° SE 10:22:27 10° ESE daylight
24 Jun - 12:21:11 10° SSW 12:45:23 47° SE 13:04:35 10° ENE daylight
24 Jun - 14:52:05 10° WSW 15:17:57 85° NNW 15:32:59 10° ENE daylight
24 Jun - 17:30:42 10° W 17:48:36 42° NNW 17:58:16 10° NE daylight
24 Jun - 20:09:15 10° NW 20:18:09 27° N 20:23:39 10° ENE visible
24 Jun - 22:39:09 10° NW 22:45:24 59° NNE 22:49:49 10° ESE visible
25 Jun - 01:07:54 10° WSW 01:09:59 13° SW 01:12:05 10° S night (unlit)
25 Jun - 11:09:11 10° SSW 11:29:56 32° SE 11:49:16 10° E daylight
25 Jun - 13:36:38 10° SW 14:03:09 75° SE 14:21:01 10° ENE daylight
25 Jun - 16:12:12 10° WSW 16:34:54 57° NNW 16:47:16 10° NE daylight
25 Jun - 18:52:42 10° WNW 19:05:18 31° N 19:12:32 10° NE visible
25 Jun - 21:26:23 10° NW 21:33:56 36° NNE 21:38:41 10° E visible
25 Jun - 23:54:32 10° WNW 23:59:11 34° SW 00:03:12 10° SSE night (unlit)
26 Jun - 09:59:18 10° S 10:14:25 20° SE 10:30:14 10° E daylight
26 Jun - 12:22:44 10° SW 12:47:52 56° SE 13:08:01 10° ENE daylight
26 Jun - 14:54:43 10° WSW 15:20:36 75° NNW 15:35:56 10° NE daylight
26 Jun - 17:34:25 10° W 17:51:54 39° NNW 18:01:30 10° NE daylight
26 Jun - 20:12:14 10° NW 20:21:45 31° N 20:27:25 10° ENE visible
26 Jun - 22:41:59 10° WNW 22:48:32 88° SSW 22:53:00 10° ESE visible
